Weather History for 60230 - January, 2014

Change the Weather History Date:

Monday, January 27, 2014

  Actual Average Record
Temperature  
Mean Temperature 54 °F -  
Max Temperature 66 °F 67 °F - ()
Min Temperature 41 °F 45 °F - ()
Degree Days  
Heating Degree Days 12    
Growing Degree Days 4 (Base 50)    
Moisture  
Dew Point 50 °F    
Average Humidity 84    
Maximum Humidity 100    
Minimum Humidity 52    
Precipitation  
Precipitation 0.00 in 0.05 in - ()
Sea Level Pressure  
Sea Level Pressure 30.22 in    
Wind  
Wind Speed 3 mph ()    
Max Wind Speed 9 mph    
Max Gust Speed -    
Visibility 4.5 miles    
Events      
T = Trace of Precipitation, MM = Missing Value Source: Averaged Metar Reports

Daily Weather History Graph

Daily Weather History Graph

Search for Another Location

Airport or City:

Trip Planner

Search our weather history database for the weather conditions in past years. The results will help you decide how hot, cold, wet, or windy it might be!

Date:

Astronomy

Jan. 27, 2014 Rise Set
Actual Time 7:28 AM WET 6:02 PM WET
Civil Twilight 7:02 AM WET 6:27 PM WET
Nautical Twilight 6:32 AM WET 6:57 PM WET
Astronomical Twilight 6:04 AM WET 7:26 PM WET
Moon 3:52 AM WET (1/27) 2:37 PM WET (1/27)
Length of Visible Light 11h 25m
Length of Day
10h 34m
Waning Crescent, 16% of the Moon is Illuminated
Jan 27
Waning Crescent
Jan 30
New
Feb 6
First Quarter
Feb 14
Full
Feb 22
Last Quarter

Hourly Weather History & Observations

Time (WET) Temp. Windchill Dew Point Humidity Pressure Visibility Wind Dir Wind Speed Gust Speed Precip Events Conditions
12:00 AM 50 °F - 48 °F 91% 30.30 in 4 mi ESE 2.3 mph - -  
12:00 AM 50.0 °F - 48.2 °F 94% 30.27 in 3.7 mi ESE 2.3 mph - N/A   Unknown
12:30 AM 51.8 °F - 48.2 °F 88% 30.27 in 4.3 mi SE 3.5 mph - N/A   Unknown
1:00 AM 50.0 °F - 48.2 °F 94% 30.27 in 4.3 mi ESE 2.3 mph - N/A   Unknown
1:30 AM 50.0 °F - 50.0 °F 100% 30.27 in 6.2 mi North 3.5 mph - N/A   Unknown
2:00 AM 50.0 °F - 48.2 °F 94% 30.27 in 5.0 mi Variable 2.3 mph - N/A   Unknown
2:30 AM 48.2 °F - 48.2 °F 100% 30.27 in 6.2 mi SE 3.5 mph - N/A   Unknown
3:00 AM 47 °F - 47 °F 98% 30.30 in 4 mi Calm Calm - -  
3:00 AM 46.4 °F - 46.4 °F 100% 30.27 in 4.3 mi Calm Calm - N/A   Unknown
3:30 AM 46.4 °F - 44.6 °F 93% 30.27 in 4.3 mi Calm Calm - N/A   Unknown
4:00 AM 46.4 °F - 46.4 °F 100% 30.27 in 5.0 mi SSE 2.3 mph - N/A   Unknown
4:30 AM 46.4 °F - 46.4 °F 100% 30.24 in 5.0 mi Calm Calm - N/A   Unknown
5:00 AM 46.4 °F - 46.4 °F 100% 30.24 in 4.3 mi Calm Calm - N/A   Unknown
5:30 AM 46.4 °F - 46.4 °F 100% 30.24 in 5.6 mi Calm Calm - N/A   Unknown
6:00 AM 45 °F - 45 °F 100% 30.29 in 6 mi Calm Calm - -  
6:00 AM 44.6 °F - 44.6 °F 100% 30.24 in 5.6 mi Calm Calm - N/A   Unknown
6:30 AM 44.6 °F - 44.6 °F 100% 30.24 in - Calm Calm - N/A   Clear
7:00 AM 44.6 °F 43.1 °F 44.6 °F 100% 30.24 in 5.6 mi SE 3.5 mph - N/A   Unknown
7:30 AM 44.6 °F - 44.6 °F 100% 30.24 in 5.6 mi Variable 2.3 mph - N/A   Unknown
8:00 AM 46.4 °F - 46.4 °F 100% 30.24 in 3.1 mi Calm Calm - N/A   Unknown
8:30 AM 46.4 °F - 46.4 °F 100% 30.24 in 5.0 mi Variable 2.3 mph - N/A   Unknown
8:45 AM 50 °F - 49 °F 95% 30.27 in 5 mi Calm Calm - -  
9:00 AM 50.0 °F - 48.2 °F 94% 30.24 in 5.0 mi Calm Calm - N/A   Unknown
9:30 AM 51.8 °F - 50.0 °F 94% 30.27 in 3.7 mi Calm Calm - N/A   Unknown
9:52 AM 55.4 °F - 50.0 °F 82% 30.27 in 1.9 mi Calm Calm - N/A   Smoke
10:00 AM 57.2 °F - 50.0 °F 77% 30.27 in 1.9 mi Calm Calm - N/A   Smoke
10:30 AM 57.2 °F - 50.0 °F 77% 30.27 in 1.9 mi Variable 2.3 mph - N/A   Smoke
11:00 AM 57.2 °F - 51.8 °F 82% 30.27 in 1.9 mi WNW 3.5 mph - N/A   Smoke
11:07 AM 57.2 °F - 51.8 °F 82% 30.27 in 3.1 mi NNW 4.6 mph - N/A   Unknown
11:30 AM 57.2 °F - 51.8 °F 82% 30.27 in 3.1 mi NNW 5.8 mph - N/A   Unknown
11:46 AM 59 °F - 52 °F 72% 30.25 in 3 mi NW 4.6 mph - -   Haze
12:00 PM 59.0 °F - 51.8 °F 77% 30.27 in 3.1 mi NW 4.6 mph - N/A   Unknown
12:30 PM 59.0 °F - 53.6 °F 82% 30.24 in 5.0 mi West 4.6 mph - N/A   Unknown
1:00 PM 62.6 °F - 51.8 °F 68% 30.24 in 5.0 mi Variable 2.3 mph - N/A   Unknown
1:30 PM 64.4 °F - 51.8 °F 64% 30.18 in - Variable 2.3 mph - N/A   Clear
2:00 PM 66.2 °F - 51.8 °F 60% 30.18 in - Variable 2.3 mph - N/A   Clear
2:30 PM 64.4 °F - 53.6 °F 68% 30.18 in - NNW 8.1 mph - N/A   Clear
3:00 PM 64 °F - 54 °F 60% 30.13 in 6 mi NNW 5.8 mph - -  
3:00 PM 64.4 °F - 53.6 °F 68% 30.15 in - NNW 5.8 mph - N/A   Clear
3:30 PM 64.4 °F - 53.6 °F 68% 30.15 in - North 4.6 mph - N/A   Clear
4:00 PM 66.2 °F - 53.6 °F 64% 30.15 in - NNW 5.8 mph - N/A   Clear
4:30 PM 66.2 °F - 51.8 °F 60% 30.15 in - NW 5.8 mph - N/A   Clear
5:00 PM 66.2 °F - 48.2 °F 52% 30.15 in - North 8.1 mph - N/A   Clear
5:30 PM 62.6 °F - 50.0 °F 63% 30.15 in 6.2 mi NNE 8.1 mph - N/A   Unknown
6:00 PM 61 °F - 52 °F 64% 30.15 in 6 mi NNE 8.1 mph - -  
6:00 PM 62.6 °F - 51.8 °F 68% 30.15 in - NNE 9.2 mph - N/A   Clear
6:30 PM 60.8 °F - 51.8 °F 72% 30.15 in - NE 4.6 mph - N/A   Clear
7:00 PM 59.0 °F - 51.8 °F 77% 30.18 in - ENE 2.3 mph - N/A   Clear
7:30 PM 59.0 °F - 51.8 °F 77% 30.18 in - ENE 2.3 mph - N/A   Clear
8:00 PM 57.2 °F - 51.8 °F 82% 30.18 in 6.2 mi ENE 4.6 mph - N/A   Unknown
8:30 PM 57.2 °F - 51.8 °F 82% 30.18 in - ESE 4.6 mph - N/A   Clear
9:00 PM 56 °F - 50 °F 75% 30.19 in 6 mi ESE 3.5 mph - -   Clear
9:00 PM 57.2 °F - 50.0 °F 77% 30.18 in - ESE 3.5 mph - N/A   Clear
10:00 PM 55.4 °F - 50.0 °F 82% 30.18 in 6.2 mi North 6.9 mph - N/A   Unknown
10:30 PM 55.4 °F - 51.8 °F 88% 30.21 in - North 5.8 mph - N/A   Clear
11:00 PM 53.6 °F - 50.0 °F 88% 30.21 in - NNE 4.6 mph - N/A   Clear
11:30 PM 53.6 °F - 50.0 °F 88% 30.21 in - NE 4.6 mph - N/A   Clear